Погода в Логовском

Россия / Волгоградская область     48°25′38″N   43°21′50″E
темп.,
°C
ветер,
м/с
пор.,
м/с
влажн.,
%
обл.,
%
осадки,
мм/ч
давл.,
гПа
погр.,
м
14 июня, пн
пн1400:00+19в117692 0.0 101211
03:00+18ссв2278100 0.0 101211
06:00+19ссв1176100 0.0 101247
09:00+21св2269100 0.0 1012394
12:00+23всв1161100 0.0 1012909
15:00+25ююв1255100 0.0 10121302
18:00+23св1266100 0.1 101229
21:00+22вюв2271100 0.1 101120
15 июня, вт
вт1500:00+20всв22794 0.0 101116
03:00+18св22864 0.1 101015
06:00+19св22849 0.0 1010101
09:00+22ссз227227 0.0 1010532
12:00+24зсз12646 1.3 1010765
15:00+26з2357100 1.6 10091235
18:00+25ююз2263100 0.0 1009347
21:00+22с2272100 0.1 100925
16 июня, ср
ср1600:00+21с227714 0.2 100926
03:00+19ссв22845 0.2 101011
06:00+20ссв22800 0.0 101176
09:00+23с11670 0.0 1011410
12:00+25з11571 0.0 1012941
15:00+26ююв01530 0.0 10111151
18:00+27ссв23543 0.0 1011661
21:00+24ссв45620 0.0 101261
17 июня, чт
чт1700:00+21св46690 0.0 101297
03:00+20св48770 0.0 1013121
06:00+21св58782 0.0 1013195
09:00+25св6763100 0.0 1014508
12:00+27св685186 0.0 1014886
15:00+28св6748100 0.0 10141210
18:00+26всв685876 0.0 1016700
21:00+22св9146017 0.0 1018392
18 июня, пт
пт1800:00+19св814600 0.0 1019422
03:00+17св612700 0.0 1020357
06:00+17св611730 0.0 1021421
09:00+21всв79560 0.0 1022731
12:00+23всв78490 0.0 10221026
15:00+24св78440 0.0 10221146
18:00+23св69490 0.0 10231017
21:00+19св612580 0.0 1025275